^^
Station Historical Data
Daily Summary for January 27, 2017 Units:  Metric    English   Both
« Previous Day
Next Day »
Daily Weekly Monthly Yearly Custom
  High: Low: Average:
Temperature: -17.8 °C -19.7 °C -17.7 °C
Dew Point: -17.8 °C -20.2 °C -18.2 °C
Humidity: Humidity% 92% 93%
Wind Speed: 0km/h 0km/h 0.3km/h
Wind Gust: 0km/h - -
Wind- - NW
Pressure: 0 hPa 34486.4 hPa -
Precipitation: 0 mm    
Historical Graphs
 
 
Tabular Data for January 27, 2017
Time Temperature Dew Point Pressure Wind Wind Speed Wind Gust Humidity Rainfall Rate (Hourly) solar Conditions
-17.8 °C -17.8 °C 0 hPa Calm     Humidity% 0 mm SoftwareType W/m2 Conditions
00:00 -17.3 °C -17.8 °C 34486.4 hPa Calm     93% 0 mm WeatherDisplay:10.37 W/m2 FEW
00:05 -17.3 °C -17.8 °C 34486.4 hPa Calm     93% 0 mm WeatherDisplay:10.37 W/m2 FEW
00:10 -17.2 °C -17.8 °C 34486.4 hPa Calm     93% 0 mm WeatherDisplay:10.37 W/m2 FEW
00:15 -17.2 °C -17.8 °C 34486.4 hPa Calm     93% 0 mm WeatherDisplay:10.37 W/m2 FEW
00:20 -17.2 °C -17.7 °C 34486.4 hPa Calm     93% 0 mm WeatherDisplay:10.37 W/m2 FEW
00:25 -17.2 °C -17.7 °C 34486.4 hPa Calm     93% 0 mm WeatherDisplay:10.37 W/m2 FEW
00:30 -17.1 °C -17.7 °C 34486.4 hPa WNW 1 km/h 5.1 km/h 93% 0 mm WeatherDisplay:10.37 W/m2 FEW
00:35 -17.1 °C -17.7 °C 34486.4 hPa Calm     93% 0 mm WeatherDisplay:10.37 W/m2 FEW
00:40 -17.1 °C -17.7 °C 34486.4 hPa Calm     93% 0 mm WeatherDisplay:10.37 W/m2 FEW
00:45 -17.2 °C -17.7 °C 34486.4 hPa Calm     93% 0 mm WeatherDisplay:10.37 W/m2 FEW
00:50 -17.2 °C -17.7 °C 34486.4 hPa Calm     93% 0 mm WeatherDisplay:10.37 W/m2 FEW
00:55 -17.1 °C -17.7 °C 34486.4 hPa Calm     93% 0 mm WeatherDisplay:10.37 W/m2 FEW
00:58 -17.2 °C -17.7 °C 34486.4 hPa Calm     93% 0 mm WeatherDisplay:10.37 W/m2 FEW
01:09 -17.2 °C -17.7 °C 34486.4 hPa Calm     93% 0 mm WeatherDisplay:10.37 W/m2 FEW
01:14 -17.2 °C -17.7 °C 34486.4 hPa Calm     93% 0 mm WeatherDisplay:10.37 W/m2 FEW
01:19 -17.2 °C -17.7 °C 34496.6 hPa Calm     93% 0 mm WeatherDisplay:10.37 W/m2 FEW
01:24 -17.2 °C -17.7 °C 34496.6 hPa Calm     93% 0 mm WeatherDisplay:10.37 W/m2 FEW
01:29 -17.2 °C -17.7 °C 34496.6 hPa WNW 0.5 km/h 3.1 km/h 93% 0 mm WeatherDisplay:10.37 W/m2 FEW
01:34 -17.1 °C -17.7 °C 34496.6 hPa WNW 1 km/h 5.1 km/h 93% 0 mm WeatherDisplay:10.37 W/m2 FEW
01:39 -17.1 °C -17.7 °C 34496.6 hPa Calm   3.1 km/h 93% 0 mm WeatherDisplay:10.37 W/m2 FEW
01:51 -17.1 °C -17.6 °C 34496.6 hPa Calm     93% 0 mm WeatherDisplay:10.37 W/m2 FEW
01:57 -17.1 °C -17.7 °C 34496.6 hPa Calm     93% 0 mm WeatherDisplay:10.37 W/m2 FEW
02:02 -17.1 °C -17.7 °C 34496.6 hPa Calm     93% 0 mm WeatherDisplay:10.37 W/m2 FEW
02:04 -17.1 °C -17.7 °C 34496.6 hPa Calm     93% 0 mm WeatherDisplay:10.37 W/m2 FEW
02:07 -17.1 °C -17.7 °C 34496.6 hPa WNW 1 km/h 6 km/h 93% 0 mm WeatherDisplay:10.37 W/m2 FEW
02:14 -17.1 °C -17.7 °C 34496.6 hPa WNW 1.8 km/h 2.6 km/h 93% 0 mm WeatherDisplay:10.37 W/m2 FEW
02:19 -17.1 °C -17.6 °C 34496.6 hPa Calm     93% 0 mm WeatherDisplay:10.37 W/m2 FEW
02:24 -17.1 °C -17.7 °C 34496.6 hPa Calm     93% 0 mm WeatherDisplay:10.37 W/m2 FEW
02:29 -17.1 °C -17.7 °C 34496.6 hPa WNW 0.3 km/h 6 km/h 93% 0 mm WeatherDisplay:10.37 W/m2 FEW
02:34 -17.1 °C -17.6 °C 34510.1 hPa NW 4.3 km/h 9 km/h 93% 0 mm WeatherDisplay:10.37 W/m2 FEW
02:39 -17 °C -17.6 °C 34510.1 hPa NNW 1.6 km/h 9 km/h 93% 0 mm WeatherDisplay:10.37 W/m2 FEW
02:44 -17 °C -17.6 °C 34510.1 hPa NNW 6.9 km/h 11.9 km/h 93% 0 mm WeatherDisplay:10.37 W/m2 FEW
02:49 -16.9 °C -17.5 °C 34510.1 hPa NW 6.4 km/h 9 km/h 93% 0 mm WeatherDisplay:10.37 W/m2 FEW
02:54 -16.9 °C -17.5 °C 34510.1 hPa WNW 5.6 km/h 9 km/h 93% 0 mm WeatherDisplay:10.37 W/m2 FEW
02:58 -16.9 °C -17.5 °C 34510.1 hPa NNW 2.1 km/h 10.3 km/h 93% 0 mm WeatherDisplay:10.37 W/m2 FEW
03:03 -17 °C -17.6 °C 34510.1 hPa NNW 3.4 km/h 9 km/h 93% 0 mm WeatherDisplay:10.37 W/m2 FEW
03:14 -16.9 °C -17.5 °C 34510.1 hPa NNW 2.9 km/h 5.1 km/h 93% 0 mm WeatherDisplay:10.37 W/m2 FEW
03:19 -16.9 °C -17.4 °C 34496.6 hPa NNW 7.6 km/h 11.9 km/h 93% 0 mm WeatherDisplay:10.37 W/m2 FEW
03:24 -16.9 °C -17.4 °C 34496.6 hPa NNW 6.3 km/h 9 km/h 93% 0 mm WeatherDisplay:10.37 W/m2 FEW
03:29 -16.9 °C -17.4 °C 34496.6 hPa NNW 3.7 km/h 6 km/h 93% 0 mm WeatherDisplay:10.37 W/m2 FEW
03:34 -16.9 °C -17.4 °C 34496.6 hPa NW 1 km/h 7.7 km/h 93% 0 mm WeatherDisplay:10.37 W/m2 FEW
03:39 -16.9 °C -17.4 °C 34496.6 hPa NW 0.8 km/h 6 km/h 93% 0 mm WeatherDisplay:10.37 W/m2 FEW
03:44 -16.9 °C -17.5 °C 34510.1 hPa Calm   6 km/h 93% 0 mm WeatherDisplay:10.37 W/m2 FEW
03:49 -17 °C -17.6 °C 34510.1 hPa NW 0.3 km/h 3.1 km/h 93% 0 mm WeatherDisplay:10.37 W/m2 FEW
03:54 -17.1 °C -17.6 °C 34510.1 hPa Calm     93% 0 mm WeatherDisplay:10.37 W/m2 FEW
04:00 -17.1 °C -17.7 °C 34510.1 hPa Calm     93% 0 mm WeatherDisplay:10.37 W/m2 FEW
04:05 -17.2 °C -17.7 °C 34510.1 hPa NW 1.3 km/h 3.1 km/h 93% 0 mm WeatherDisplay:10.37 W/m2 FEW
04:06 -17.2 °C -17.7 °C 34510.1 hPa Calm     93% 0 mm WeatherDisplay:10.37 W/m2 FEW
04:12 -17.3 °C -17.9 °C 34510.1 hPa Calm     93% 0 mm WeatherDisplay:10.37 W/m2 FEW
04:18 -17.4 °C -18 °C 34510.1 hPa Calm     93% 0 mm WeatherDisplay:10.37 W/m2 FEW
04:23 -17.6 °C -18.1 °C 34510.1 hPa Calm     93% 0 mm WeatherDisplay:10.37 W/m2 FEW
04:28 -17.6 °C -18.2 °C 34510.1 hPa Calm     93% 0 mm WeatherDisplay:10.37 W/m2 FEW
04:33 -17.7 °C -18.3 °C 34510.1 hPa Calm     92% 0 mm WeatherDisplay:10.37 W/m2 FEW
04:38 -17.7 °C -18.3 °C 34510.1 hPa Calm     93% 0 mm WeatherDisplay:10.37 W/m2 FEW
04:43 -17.7 °C -18.3 °C 34510.1 hPa Calm     93% 0 mm WeatherDisplay:10.37 W/m2 FEW
04:48 -17.8 °C -18.3 °C 34520.3 hPa Calm     93% 0 mm WeatherDisplay:10.37 W/m2 FEW
04:53 -17.8 °C -18.4 °C 34520.3 hPa Calm     93% 0 mm WeatherDisplay:10.37 W/m2 FEW
04:58 -17.8 °C -18.4 °C 34520.3 hPa Calm     93% 0 mm WeatherDisplay:10.37 W/m2 FEW
05:03 -17.8 °C -18.4 °C 34520.3 hPa Calm     93% 0 mm WeatherDisplay:10.37 W/m2 FEW
05:08 -17.8 °C -18.4 °C 34520.3 hPa Calm     93% 0 mm WeatherDisplay:10.37 W/m2 FEW
05:14 -17.9 °C -18.5 °C 34533.8 hPa Calm     92% 0 mm WeatherDisplay:10.37 W/m2 FEW
05:19 -17.9 °C -18.5 °C 34533.8 hPa Calm     92% 0 mm WeatherDisplay:10.37 W/m2 FEW
05:24 -17.9 °C -18.5 °C 34533.8 hPa Calm     92% 0 mm WeatherDisplay:10.37 W/m2 FEW
05:29 -17.9 °C -18.6 °C 34533.8 hPa Calm     92% 0 mm WeatherDisplay:10.37 W/m2 FEW
05:30 -17.9 °C -18.6 °C 34533.8 hPa Calm     92% 0 mm WeatherDisplay:10.37 W/m2 FEW
05:35 -17.9 °C -18.6 °C 34533.8 hPa Calm     92% 0 mm WeatherDisplay:10.37 W/m2 FEW
05:41 -17.9 °C -18.6 °C 34533.8 hPa Calm     92% 0 mm WeatherDisplay:10.37 W/m2 FEW
05:46 -17.9 °C -18.5 °C 34533.8 hPa Calm     92% 0 mm WeatherDisplay:10.37 W/m2 FEW
05:51 -17.8 °C -18.3 °C 34533.8 hPa Calm     93% 0 mm WeatherDisplay:10.37 W/m2 FEW
05:56 -17.7 °C -18.3 °C 34533.8 hPa Calm     93% 0 mm WeatherDisplay:10.37 W/m2 FEW
06:02 -17.7 °C -18.2 °C 34533.8 hPa Calm     93% 0 mm WeatherDisplay:10.37 W/m2 FEW
06:07 -17.6 °C -18.2 °C 34520.3 hPa Calm     93% 0 mm WeatherDisplay:10.37 W/m2 FEW
06:12 -17.7 °C -18.2 °C 34520.3 hPa NW 0.5 km/h 6 km/h 93% 0 mm WeatherDisplay:10.37 W/m2 FEW
06:17 -17.7 °C -18.2 °C 34520.3 hPa Calm     93% 0 mm WeatherDisplay:10.37 W/m2 FEW
06:22 -17.7 °C -18.3 °C 34533.8 hPa Calm     93% 0 mm WeatherDisplay:10.37 W/m2 FEW
06:27 -17.8 °C -18.3 °C 34533.8 hPa Calm     93% 0 mm WeatherDisplay:10.37 W/m2 FEW
06:32 -17.8 °C -18.4 °C 34533.8 hPa Calm     93% 0 mm WeatherDisplay:10.37 W/m2 FEW
06:37 -17.8 °C -18.4 °C 34520.3 hPa Calm     93% 0 mm WeatherDisplay:10.37 W/m2 FEW
06:42 -17.8 °C -18.4 °C 34520.3 hPa Calm     93% 0 mm WeatherDisplay:10.37 W/m2 FEW
06:47 -17.8 °C -18.4 °C 34520.3 hPa Calm     93% 0 mm WeatherDisplay:10.37 W/m2 FEW
06:52 -17.8 °C -18.4 °C 34533.8 hPa Calm     93% 0 mm WeatherDisplay:10.37 W/m2 FEW
06:58 -17.8 °C -18.4 °C 34533.8 hPa Calm     93% 0 mm WeatherDisplay:10.37 W/m2 FEW
07:03 -17.8 °C -18.3 °C 34533.8 hPa Calm     93% 0 mm WeatherDisplay:10.37 W/m2 FEW
07:08 -17.7 °C -18.3 °C 34533.8 hPa Calm     93% 0 mm WeatherDisplay:10.37 W/m2 FEW
07:13 -17.7 °C -18.2 °C 34533.8 hPa Calm     93% 0 mm WeatherDisplay:10.37 W/m2 FEW
07:18 -17.6 °C -18.2 °C 34533.8 hPa Calm     93% 0 mm WeatherDisplay:10.37 W/m2 FEW
07:23 -17.6 °C -18.1 °C 34533.8 hPa Calm     93% 0 mm WeatherDisplay:10.37 W/m2 FEW
07:28 -17.4 °C -18 °C 34533.8 hPa NW 0.8 km/h 9 km/h 93% 0 mm WeatherDisplay:10.37 W/m2 FEW
07:33 -17.3 °C -17.9 °C 34533.8 hPa NW 1.6 km/h 6 km/h 93% 0 mm WeatherDisplay:10.37 W/m2 FEW
07:43 -17.3 °C -17.9 °C 34533.8 hPa Calm     93% 0 mm WeatherDisplay:10.37 W/m2 FEW
07:48 -17.4 °C -17.9 °C 34544 hPa Calm     93% 0 mm WeatherDisplay:10.37 W/m2 FEW
07:54 -17.4 °C -18 °C 34533.8 hPa NW 2.6 km/h 9 km/h 93% 0 mm WeatherDisplay:10.37 W/m2 FEW
08:00 -17.4 °C -18 °C 34544 hPa Calm     93% 0 mm WeatherDisplay:10.37 W/m2 FEW
08:05 -17.4 °C -18 °C 34544 hPa NW 1.6 km/h 6 km/h 93% 0 mm WeatherDisplay:10.37 W/m2 FEW
08:10 -17.4 °C -18 °C 34544 hPa Calm     93% 0 mm WeatherDisplay:10.37 W/m2 FEW
08:16 -17.4 °C -18 °C 34533.8 hPa NW 2.6 km/h 9 km/h 93% 0 mm WeatherDisplay:10.37 W/m2 FEW
08:21 -17.4 °C -17.9 °C 34533.8 hPa NW 4.3 km/h 9 km/h 93% 0 mm WeatherDisplay:10.37 W/m2 FEW
08:26 -17.3 °C -17.9 °C 34533.8 hPa Calm     93% 0 mm WeatherDisplay:10.37 W/m2 FEW
08:31 -17.3 °C -17.9 °C 34533.8 hPa NW 2.6 km/h 9 km/h 93% 0 mm WeatherDisplay:10.37 W/m2 FEW
08:36 -17.3 °C -17.9 °C 34544 hPa NW 2.6 km/h 11.9 km/h 93% 0 mm WeatherDisplay:10.37 W/m2 FEW
08:41 -17.4 °C -17.9 °C 34544 hPa NNW 5.1 km/h 9 km/h 93% 0 mm WeatherDisplay:10.37 W/m2 FEW
08:46 -17.3 °C -17.9 °C 34544 hPa WNW 0.5 km/h 6 km/h 93% 0 mm WeatherDisplay:10.37 W/m2 FEW
08:51 -17.3 °C -17.9 °C 34544 hPa NNW 6 km/h 9 km/h 93% 0 mm WeatherDisplay:10.37 W/m2 FEW
09:01 -17.3 °C -17.8 °C 34544 hPa NNW 5.1 km/h 9 km/h 93% 0 mm WeatherDisplay:10.37 W/m2 FEW
09:06 -17.3 °C -17.9 °C 34544 hPa NNW 4.7 km/h 9 km/h 93% 0 mm WeatherDisplay:10.37 W/m2 FEW
09:12 -17.3 °C -17.9 °C 34554.1 hPa NNW 0.8 km/h 9 km/h 93% 0 mm WeatherDisplay:10.37 W/m2 FEW
09:17 -17.3 °C -17.9 °C 34554.1 hPa Calm     93% 0 mm WeatherDisplay:10.37 W/m2 FEW
09:22 -17.3 °C -17.9 °C 34554.1 hPa Calm     93% 0 mm WeatherDisplay:10.37 W/m2 FEW
09:27 -17.4 °C -17.9 °C 34554.1 hPa Calm     93% 0 mm WeatherDisplay:10.37 W/m2 FEW
09:32 -17.4 °C -17.9 °C 34554.1 hPa Calm     93% 0 mm WeatherDisplay:10.37 W/m2 FEW
09:37 -17.4 °C -17.9 °C 34554.1 hPa Calm     93% 0 mm WeatherDisplay:10.37 W/m2 FEW
09:42 -17.4 °C -18 °C 34554.1 hPa Calm     93% 0 mm WeatherDisplay:10.37 W/m2 FEW
09:52 -17.5 °C -18.1 °C 34567.7 hPa Calm     93% 0 mm WeatherDisplay:10.37 W/m2 FEW
09:57 -17.6 °C -18.1 °C 34567.7 hPa Calm     93% 0 mm WeatherDisplay:10.37 W/m2 FEW
10:02 -17.6 °C -18.1 °C 34567.7 hPa Calm     93% 0 mm WeatherDisplay:10.37 W/m2 FEW
10:08 -17.6 °C -18.1 °C 34567.7 hPa Calm     93% 0 mm WeatherDisplay:10.37 W/m2 FEW
10:13 -17.6 °C -18.1 °C 34567.7 hPa Calm     93% 0 mm WeatherDisplay:10.37 W/m2 FEW
10:18 -17.4 °C -17.9 °C 34567.7 hPa Calm     93% 0 mm WeatherDisplay:10.37 W/m2 FEW
10:23 -17.3 °C -17.9 °C 34567.7 hPa Calm     93% 0 mm WeatherDisplay:10.37 W/m2 FEW
10:28 -17.4 °C -17.9 °C 34567.7 hPa Calm     93% 0 mm WeatherDisplay:10.37 W/m2 FEW
10:33 -17.4 °C -17.9 °C 34577.8 hPa Calm     93% 0 mm WeatherDisplay:10.37 W/m2 FEW
10:38 -17.4 °C -17.9 °C 34577.8 hPa Calm     93% 0 mm WeatherDisplay:10.37 W/m2 FEW
10:43 -17.4 °C -17.9 °C 34577.8 hPa Calm     93% 0 mm WeatherDisplay:10.37 W/m2 FEW
10:47 -17.4 °C -17.9 °C 34577.8 hPa Calm     93% 0 mm WeatherDisplay:10.37 W/m2 FEW
10:53 -17.4 °C -17.9 °C 34577.8 hPa Calm     93% 0 mm WeatherDisplay:10.37 W/m2 FEW
10:58 -17.4 °C -17.9 °C 34577.8 hPa Calm     93% 0 mm WeatherDisplay:10.37 W/m2 FEW
11:03 -17.4 °C -17.9 °C 34577.8 hPa Calm     93% 0 mm WeatherDisplay:10.37 W/m2 FEW
11:08 -17.3 °C -17.9 °C 34577.8 hPa Calm     93% 0 mm WeatherDisplay:10.37 W/m2 FEW
11:13 -17.3 °C -17.9 °C 34577.8 hPa NW 1 km/h 6 km/h 93% 0 mm WeatherDisplay:10.37 W/m2 FEW
11:18 -17.3 °C -17.9 °C 34577.8 hPa Calm     93% 0 mm WeatherDisplay:10.37 W/m2 FEW
11:23 -17.3 °C -17.9 °C 34577.8 hPa Calm     93% 0 mm WeatherDisplay:10.37 W/m2 FEW
11:28 -17.3 °C -17.8 °C 34591.4 hPa WNW 0.5 km/h 9 km/h 93% 0 mm WeatherDisplay:10.37 W/m2 FEW
11:33 -17.2 °C -17.8 °C 34591.4 hPa Calm     93% 0 mm WeatherDisplay:10.37 W/m2 FEW
11:38 -17.2 °C -17.7 °C 34577.8 hPa WNW 1.3 km/h 5.1 km/h 93% 0 mm WeatherDisplay:10.37 W/m2 FEW
11:43 -17.1 °C -17.7 °C 34591.4 hPa Calm   2.6 km/h 93% 0 mm WeatherDisplay:10.37 W/m2 FEW
11:48 -17.1 °C -17.6 °C 34591.4 hPa Calm     93% 0 mm WeatherDisplay:10.37 W/m2 FEW
11:53 -17.1 °C -17.6 °C 34591.4 hPa Calm     93% 0 mm WeatherDisplay:10.37 W/m2 FEW
11:58 -17 °C -17.6 °C 34591.4 hPa Calm     93% 0 mm WeatherDisplay:10.37 W/m2 FEW
12:03 -17 °C -17.6 °C 34591.4 hPa Calm     93% 0 mm WeatherDisplay:10.37 W/m2 FEW
12:08 -16.9 °C -17.4 °C 34591.4 hPa Calm     93% 0 mm WeatherDisplay:10.37 W/m2 FEW
12:13 -16.8 °C -17.4 °C 34591.4 hPa Calm     93% 0 mm WeatherDisplay:10.37 W/m2 FEW
12:18 -16.8 °C -17.4 °C 34591.4 hPa Calm     93% 0 mm WeatherDisplay:10.37 W/m2 FEW
12:24 -16.8 °C -17.3 °C 34591.4 hPa NNW 0.3 km/h 6 km/h 93% 0 mm WeatherDisplay:10.37 W/m2 FEW
12:29 -16.8 °C -17.3 °C 34591.4 hPa Calm     93% 0 mm WeatherDisplay:10.37 W/m2 FEW
12:34 -16.7 °C -17.3 °C 34591.4 hPa Calm     93% 0 mm WeatherDisplay:10.37 W/m2 FEW
12:39 -16.7 °C -17.2 °C 34591.4 hPa Calm   2.6 km/h 93% 0 mm WeatherDisplay:10.37 W/m2 FEW
12:44 -16.6 °C -17.2 °C 34577.8 hPa Calm     93% 0 mm WeatherDisplay:10.37 W/m2 FEW
12:49 -16.6 °C -17.2 °C 34577.8 hPa Calm     93% 0 mm WeatherDisplay:10.37 W/m2 FEW
12:54 -16.6 °C -17.1 °C 34577.8 hPa NW 0.8 km/h 6 km/h 93% 0 mm WeatherDisplay:10.37 W/m2 FEW
12:59 -16.6 °C -17.1 °C 34577.8 hPa Calm     93% 0 mm WeatherDisplay:10.37 W/m2 FEW
13:05 -16.6 °C -17.2 °C 34577.8 hPa Calm     93% 0 mm WeatherDisplay:10.37 W/m2 FEW
13:10 -16.6 °C -17.2 °C 34577.8 hPa Calm     93% 0 mm WeatherDisplay:10.37 W/m2 FEW
13:15 -16.7 °C -17.2 °C 34577.8 hPa Calm     93% 0 mm WeatherDisplay:10.37 W/m2 FEW
13:20 -16.7 °C -17.2 °C 34591.4 hPa Calm     93% 0 mm WeatherDisplay:10.37 W/m2 FEW
13:25 -16.7 °C -17.2 °C 34591.4 hPa Calm     93% 0 mm WeatherDisplay:10.37 W/m2 FEW
13:30 -16.6 °C -17.2 °C 34591.4 hPa Calm     93% 0 mm WeatherDisplay:10.37 W/m2 FEW
13:35 -16.6 °C -17.2 °C 34591.4 hPa Calm     93% 0 mm WeatherDisplay:10.37 W/m2 FEW
13:41 -16.6 °C -17.2 °C 34591.4 hPa Calm     93% 0 mm WeatherDisplay:10.37 W/m2 FEW
13:46 -16.6 °C -17.2 °C 34591.4 hPa Calm     93% 0 mm WeatherDisplay:10.37 W/m2 FEW
13:51 -16.6 °C -17.2 °C 34591.4 hPa Calm     93% 0 mm WeatherDisplay:10.37 W/m2 FEW
13:56 -16.6 °C -17.2 °C 34591.4 hPa Calm     93% 0 mm WeatherDisplay:10.37 W/m2 FEW
14:01 -16.6 °C -17.2 °C 34591.4 hPa Calm     93% 0 mm WeatherDisplay:10.37 W/m2 FEW
14:07 -16.6 °C -17.2 °C 34591.4 hPa Calm     93% 0 mm WeatherDisplay:10.37 W/m2 FEW
14:12 -16.6 °C -17.2 °C 34591.4 hPa Calm     93% 0 mm WeatherDisplay:10.37 W/m2 FEW
14:17 -16.6 °C -17.2 °C 34591.4 hPa Calm     93% 0 mm WeatherDisplay:10.37 W/m2 FEW
14:22 -16.6 °C -17.2 °C 34591.4 hPa Calm     93% 0 mm WeatherDisplay:10.37 W/m2 FEW
14:27 -16.6 °C -17.2 °C 34591.4 hPa Calm     93% 0 mm WeatherDisplay:10.37 W/m2 FEW
14:32 -16.7 °C -17.2 °C 34591.4 hPa Calm     93% 0 mm WeatherDisplay:10.37 W/m2 FEW
14:37 -16.7 °C -17.2 °C 34591.4 hPa Calm     93% 0 mm WeatherDisplay:10.37 W/m2 FEW
14:42 -16.7 °C -17.3 °C 34591.4 hPa Calm     93% 0 mm WeatherDisplay:10.37 W/m2 FEW
14:47 -16.7 °C -17.3 °C 34591.4 hPa Calm     93% 0 mm WeatherDisplay:10.37 W/m2 FEW
14:52 -16.7 °C -17.3 °C 34591.4 hPa Calm     93% 0 mm WeatherDisplay:10.37 W/m2 FEW
14:57 -16.7 °C -17.3 °C 34591.4 hPa Calm     93% 0 mm WeatherDisplay:10.37 W/m2 FEW
15:02 -16.7 °C -17.3 °C 34591.4 hPa Calm     93% 0 mm WeatherDisplay:10.37 W/m2 FEW
15:03 -16.7 °C -17.3 °C 34591.4 hPa Calm     93% 0 mm WeatherDisplay:10.37 W/m2 FEW
15:08 -16.7 °C -17.3 °C 34577.8 hPa Calm     93% 0 mm WeatherDisplay:10.37 W/m2 FEW
15:13 -16.8 °C -17.3 °C 34577.8 hPa Calm     93% 0 mm WeatherDisplay:10.37 W/m2 FEW
15:19 -16.8 °C -17.3 °C 34577.8 hPa Calm     93% 0 mm WeatherDisplay:10.37 W/m2 FEW
15:24 -16.8 °C -17.4 °C 34577.8 hPa Calm     93% 0 mm WeatherDisplay:10.37 W/m2 FEW
15:29 -16.8 °C -17.4 °C 34577.8 hPa Calm     93% 0 mm WeatherDisplay:10.37 W/m2 FEW
15:35 -16.8 °C -17.4 °C 34577.8 hPa Calm     93% 0 mm WeatherDisplay:10.37 W/m2 FEW
15:40 -16.9 °C -17.4 °C 34577.8 hPa Calm     93% 0 mm WeatherDisplay:10.37 W/m2 FEW
15:45 -16.9 °C -17.4 °C 34577.8 hPa Calm     93% 0 mm WeatherDisplay:10.37 W/m2 FEW
15:50 -17 °C -17.6 °C 34577.8 hPa Calm     93% 0 mm WeatherDisplay:10.37 W/m2 FEW
15:55 -17 °C -17.6 °C 34577.8 hPa Calm     93% 0 mm WeatherDisplay:10.37 W/m2 FEW
16:00 -17.1 °C -17.6 °C 34577.8 hPa Calm     93% 0 mm WeatherDisplay:10.37 W/m2 FEW
16:05 -17.1 °C -17.6 °C 34577.8 hPa Calm     93% 0 mm WeatherDisplay:10.37 W/m2 FEW
16:10 -17.1 °C -17.7 °C 34591.4 hPa Calm     93% 0 mm WeatherDisplay:10.37 W/m2 FEW
16:15 -17.2 °C -17.7 °C 34591.4 hPa Calm     93% 0 mm WeatherDisplay:10.37 W/m2 FEW
16:20 -17.2 °C -17.7 °C 34591.4 hPa Calm     93% 0 mm WeatherDisplay:10.37 W/m2 FEW
16:25 -17.3 °C -17.8 °C 34591.4 hPa Calm     93% 0 mm WeatherDisplay:10.37 W/m2 FEW
16:30 -17.3 °C -17.9 °C 34591.4 hPa Calm     92% 0 mm WeatherDisplay:10.37 W/m2 FEW
16:35 -17.4 °C -17.9 °C 34591.4 hPa Calm     93% 0 mm WeatherDisplay:10.37 W/m2 FEW
16:40 -17.5 °C -18.1 °C 34591.4 hPa Calm     93% 0 mm WeatherDisplay:10.37 W/m2 FEW
16:45 -17.6 °C -18.2 °C 34591.4 hPa Calm     93% 0 mm WeatherDisplay:10.37 W/m2 FEW
16:51 -17.7 °C -18.2 °C 34591.4 hPa Calm     93% 0 mm WeatherDisplay:10.37 W/m2 FEW
16:53 -17.7 °C -18.2 °C 34591.4 hPa Calm     93% 0 mm WeatherDisplay:10.37 W/m2 FEW
16:58 -17.7 °C -18.3 °C 34591.4 hPa Calm     93% 0 mm WeatherDisplay:10.37 W/m2 FEW
17:03 -17.8 °C -18.3 °C 34591.4 hPa Calm     93% 0 mm WeatherDisplay:10.37 W/m2 FEW
17:08 -17.8 °C -18.4 °C 34591.4 hPa Calm     93% 0 mm WeatherDisplay:10.37 W/m2 FEW
17:13 -17.8 °C -18.5 °C 34591.4 hPa Calm     92% 0 mm WeatherDisplay:10.37 W/m2 FEW
17:18 -17.9 °C -18.4 °C 34591.4 hPa Calm     93% 0 mm WeatherDisplay:10.37 W/m2 FEW
17:23 -17.9 °C -18.5 °C 34591.4 hPa Calm     93% 0 mm WeatherDisplay:10.37 W/m2 FEW
17:38 -18.1 °C -18.6 °C 34591.4 hPa Calm     93% 0 mm WeatherDisplay:10.37 W/m2 FEW
17:43 -18.1 °C -18.7 °C 34591.4 hPa Calm     93% 0 mm WeatherDisplay:10.37 W/m2 FEW
17:48 -18.2 °C -18.7 °C 34591.4 hPa Calm     93% 0 mm WeatherDisplay:10.37 W/m2 FEW
17:53 -18.2 °C -18.7 °C 34601.5 hPa Calm     93% 0 mm WeatherDisplay:10.37 W/m2 FEW
17:58 -18.2 °C -18.8 °C 34601.5 hPa Calm     93% 0 mm WeatherDisplay:10.37 W/m2 FEW
18:04 -18.2 °C -18.8 °C 34601.5 hPa Calm     93% 0 mm WeatherDisplay:10.37 W/m2 FEW
18:09 -18.3 °C -18.8 °C 34611.7 hPa Calm     93% 0 mm WeatherDisplay:10.37 W/m2 FEW
18:14 -18.3 °C -18.9 °C 34601.5 hPa Calm     93% 0 mm WeatherDisplay:10.37 W/m2 FEW
18:19 -18.4 °C -18.9 °C 34601.5 hPa Calm     93% 0 mm WeatherDisplay:10.37 W/m2 FEW
18:24 -18.4 °C -18.9 °C 34601.5 hPa Calm     93% 0 mm WeatherDisplay:10.37 W/m2 FEW
18:34 -18.4 °C -19 °C 34611.7 hPa Calm     93% 0 mm WeatherDisplay:10.37 W/m2 FEW
18:39 -18.4 °C -19 °C 34601.5 hPa Calm     93% 0 mm WeatherDisplay:10.37 W/m2 FEW
18:44 -18.4 °C -19 °C 34601.5 hPa Calm     93% 0 mm WeatherDisplay:10.37 W/m2 FEW
18:49 -18.4 °C -18.9 °C 34601.5 hPa Calm     93% 0 mm WeatherDisplay:10.37 W/m2 FEW
18:54 -18.4 °C -18.9 °C 34601.5 hPa Calm     93% 0 mm WeatherDisplay:10.37 W/m2 FEW
18:59 -18.3 °C -18.8 °C 34601.5 hPa Calm     93% 0 mm WeatherDisplay:10.37 W/m2 FEW
19:04 -18.3 °C -18.8 °C 34601.5 hPa Calm     93% 0 mm WeatherDisplay:10.37 W/m2 FEW
19:09 -18.2 °C -18.8 °C 34601.5 hPa Calm     93% 0 mm WeatherDisplay:10.37 W/m2 FEW
19:14 -18.2 °C -18.8 °C 34601.5 hPa Calm     93% 0 mm WeatherDisplay:10.37 W/m2 FEW
19:19 -18.3 °C -18.8 °C 34601.5 hPa Calm     93% 0 mm WeatherDisplay:10.37 W/m2 FEW
19:24 -18.3 °C -18.9 °C 34601.5 hPa Calm     93% 0 mm WeatherDisplay:10.37 W/m2 FEW
19:29 -18.4 °C -18.9 °C 34601.5 hPa Calm     93% 0 mm WeatherDisplay:10.37 W/m2 FEW
19:34 -18.4 °C -19 °C 34601.5 hPa Calm     93% 0 mm WeatherDisplay:10.37 W/m2 FEW
19:39 -18.5 °C -19.1 °C 34601.5 hPa Calm     93% 0 mm WeatherDisplay:10.37 W/m2 FEW
19:44 -18.5 °C -19.1 °C 34601.5 hPa Calm     93% 0 mm WeatherDisplay:10.37 W/m2 FEW
19:49 -18.6 °C -19.1 °C 34601.5 hPa Calm     93% 0 mm WeatherDisplay:10.37 W/m2 FEW
19:59 -18.6 °C -19.2 °C 34601.5 hPa Calm     93% 0 mm WeatherDisplay:10.37 W/m2 FEW
20:00 -18.6 °C -19.2 °C 34601.5 hPa Calm     93% 0 mm WeatherDisplay:10.37 W/m2 FEW
20:05 -18.7 °C -19.2 °C 34601.5 hPa Calm     93% 0 mm WeatherDisplay:10.37 W/m2 FEW
20:10 -18.7 °C -19.3 °C 34601.5 hPa Calm     93% 0 mm WeatherDisplay:10.37 W/m2 FEW
20:15 -18.8 °C -19.3 °C 34601.5 hPa Calm     93% 0 mm WeatherDisplay:10.37 W/m2 FEW
20:20 -18.8 °C -19.4 °C 34601.5 hPa Calm     93% 0 mm WeatherDisplay:10.37 W/m2 FEW
20:49 -19.1 °C -19.6 °C 34601.5 hPa Calm     93% 0 mm WeatherDisplay:10.37 W/m2 FEW
20:54 -19.1 °C -19.6 °C 34601.5 hPa Calm     93% 0 mm WeatherDisplay:10.37 W/m2 FEW
20:59 -19.1 °C -19.7 °C 34601.5 hPa Calm     93% 0 mm WeatherDisplay:10.37 W/m2 FEW
21:04 -19.1 °C -19.7 °C 34601.5 hPa Calm     93% 0 mm WeatherDisplay:10.37 W/m2 FEW
21:09 -19.2 °C -19.7 °C 34601.5 hPa Calm     93% 0 mm WeatherDisplay:10.37 W/m2 FEW
21:14 -19.2 °C -19.8 °C 34611.7 hPa Calm     93% 0 mm WeatherDisplay:10.37 W/m2 FEW
21:19 -19.2 °C -19.8 °C 34611.7 hPa Calm     93% 0 mm WeatherDisplay:10.37 W/m2 FEW
21:24 -19.2 °C -19.8 °C 34611.7 hPa Calm     93% 0 mm WeatherDisplay:10.37 W/m2 FEW
21:29 -19.3 °C -19.8 °C 34611.7 hPa Calm     93% 0 mm WeatherDisplay:10.37 W/m2 FEW
21:34 -19.3 °C -19.8 °C 34611.7 hPa Calm     93% 0 mm WeatherDisplay:10.37 W/m2 FEW
21:39 -19.3 °C -19.8 °C 34611.7 hPa Calm     93% 0 mm WeatherDisplay:10.37 W/m2 FEW
21:44 -19.3 °C -19.8 °C 34611.7 hPa Calm     93% 0 mm WeatherDisplay:10.37 W/m2 FEW
21:54 -19.3 °C -19.8 °C 34611.7 hPa Calm     93% 0 mm WeatherDisplay:10.37 W/m2 FEW
21:59 -19.3 °C -19.8 °C 34611.7 hPa Calm     93% 0 mm WeatherDisplay:10.37 W/m2 FEW
22:04 -19.2 °C -19.8 °C 34625.2 hPa Calm     93% 0 mm WeatherDisplay:10.37 W/m2 FEW
22:09 -19.2 °C -19.8 °C 34625.2 hPa Calm     93% 0 mm WeatherDisplay:10.37 W/m2 FEW
22:14 -19.2 °C -19.8 °C 34625.2 hPa Calm     93% 0 mm WeatherDisplay:10.37 W/m2 FEW
22:19 -19.3 °C -19.8 °C 34625.2 hPa Calm     93% 0 mm WeatherDisplay:10.37 W/m2 FEW
22:34 -19.3 °C -19.9 °C 34625.2 hPa Calm     93% 0 mm WeatherDisplay:10.37 W/m2 FEW
22:39 -19.3 °C -19.9 °C 34625.2 hPa Calm     93% 0 mm WeatherDisplay:10.37 W/m2 FEW
22:44 -19.3 °C -19.9 °C 34625.2 hPa Calm     93% 0 mm WeatherDisplay:10.37 W/m2 FEW
22:49 -19.3 °C -19.9 °C 34611.7 hPa Calm     93% 0 mm WeatherDisplay:10.37 W/m2 FEW
22:54 -19.3 °C -19.9 °C 34611.7 hPa Calm     93% 0 mm WeatherDisplay:10.37 W/m2 FEW
22:59 -19.4 °C -19.9 °C 34611.7 hPa Calm     93% 0 mm WeatherDisplay:10.37 W/m2 FEW
23:04 -19.4 °C -19.9 °C 34625.2 hPa Calm     93% 0 mm WeatherDisplay:10.37 W/m2 FEW
23:09 -19.4 °C -20 °C 34625.2 hPa Calm     93% 0 mm WeatherDisplay:10.37 W/m2 FEW
23:14 -19.5 °C -20 °C 34625.2 hPa Calm     93% 0 mm WeatherDisplay:10.37 W/m2 FEW
23:19 -19.5 °C -20 °C 34625.2 hPa Calm     93% 0 mm WeatherDisplay:10.37 W/m2 FEW
23:24 -19.6 °C -20.1 °C 34625.2 hPa Calm     93% 0 mm WeatherDisplay:10.37 W/m2 FEW
23:29 -19.6 °C -20.1 °C 34625.2 hPa Calm     93% 0 mm WeatherDisplay:10.37 W/m2 FEW
23:34 -19.6 °C -20.1 °C 34625.2 hPa Calm     93% 0 mm WeatherDisplay:10.37 W/m2 FEW
23:39 -19.6 °C -20.2 °C 34625.2 hPa Calm     93% 0 mm WeatherDisplay:10.37 W/m2 FEW
23:44 -19.6 °C -20.2 °C 34625.2 hPa Calm     93% 0 mm WeatherDisplay:10.37 W/m2 FEW
23:49 -19.7 °C -20.2 °C 34625.2 hPa Calm     93% 0 mm WeatherDisplay:10.37 W/m2 FEW
23:54 -19.7 °C -20.2 °C 34625.2 hPa Calm     93% 0 mm WeatherDisplay:10.37 W/m2 FEW
23:59 -19.7 °C -20.2 °C 34625.2 hPa Calm     93% 0 mm WeatherDisplay:10.37 W/m2 FEW
Tuulensuunkaari, Veikkola, Suomi
Compliments of Weather Underground - 2.5 mb